Theta_e
310 310 310 309 308 304 306 308 299 313 311 299 302 297 297 297 297 300 298 298 296 293 293 291 291 291 294 298 298 292 296 291 286 288 295 297 293 293 291 284 283 288 285 286
310 309 309 307 306 304 303 303 304 313 310 297 296 299 299 300 296 297 296 295 298 297 293 289 293 294 298 299 297 294 295 289 283 285 290 293 289 291 292 292 292 285 282 286
309 309 308 306 305 305 305 304 298 304 304 304 299 296 296 295 299 296 298 297 298 296 293 295 291 292 296 299 298 301 298 291 286 282 285 290 286 290 292 290 286 287 287 288
308 308 308 307 305 304 307 305 300 302 294 296 297 297 297 295 294 298 298 296 295 293 289 291 291 293 294 297 300 298 296 288 290 290 291 292 290 290 292 290 290 286 288 289
305 306 307 307 305 304 308 299 296 298 295 299 298 297 296 295 296 295 293 292 294 294 291 291 289 293 293 293 297 296 297 288 291 288 291 291 289 292 292 292 292 291 291 290
304 304 305 306 306 305 305 304 304 297 294 297 296 296 295 294 295 296 297 296 294 292 294 299 299 299 299 298 295 294 293 290 288 283 289 289 285 290 291 291 294 293 289 294
303 303 303 304 305 304 304 304 303 295 290 293 293 294 295 295 295 292 296 297 294 298 303 302 301 300 300 299 298 300 291 290 289 285 288 278 289 296 295 292 295 297 297 298
303 303 303 303 304 304 302 304 301 298 290 294 293 296 295 296 297 295 296 298 301 304 300 294 292 295 291 297 298 297 295 291 286 284 283 287 289 294 293 292 292 298 297 299
302 302 302 302 303 304 303 302 306 302 293 293 297 294 295 292 290 293 297 301 304 303 296 292 287 286 290 290 293 299 296 293 287 286 281 279 291 295 298 296 287 300 299 296
301 302 301 302 302 303 302 301 309 303 293 297 299 294 293 296 293 291 294 296 297 302 294 289 288 288 293 288 287 289 290 287 284 285 283 288 296 297 298 285 289 298 299 298
301 301 302 302 302 303 303 301 307 301 295 297 299 300 297 297 295 290 294 293 294 295 291 291 291 289 290 290 293 291 287 288 287 288 284 282 300 297 288 296 300 299 299 300
301 301 302 302 301 302 302 298 306 306 301 298 302 302 303 302 301 296 297 294 293 294 293 295 294 291 293 291 287 296 290 294 290 289 291 301 302 300 300 303 300 299 298 300
300 301 301 301 303 303 303 300 302 301 296 296 298 299 306 309 306 308 294 296 297 297 302 295 294 290 295 289 291 293 297 299 295 294 297 298 301 304 303 303 301 301 301 300
300 301 301 303 304 304 303 299 302 300 297 290 294 306 304 308 310 307 306 303 302 302 300 294 291 289 297 292 295 293 297 299 295 295 299 300 300 302 303 302 302 301 300 300
301 301 302 303 303 303 302 301 302 303 295 290 292 299 304 309 307 306 306 302 300 300 294 291 289 294 294 296 297 295 300 298 293 292 300 300 299 303 303 300 298 299 299 299
301 302 302 302 302 302 300 296 304 305 302 292 286 300 300 304 306 303 301 301 300 299 295 294 295 297 294 290 291 298 301 303 302 297 302 303 303 304 303 300 298 298 299 301
301 301 301 301 302 301 296 297 300 304 303 292 288 293 302 306 305 304 302 303 299 298 294 291 292 294 295 291 289 298 302 302 303 305 303 299 301 299 302 300 299 300 302 305
301 302 302 302 303 301 298 304 305 305 297 295 290 291 296 306 300 299 305 300 298 295 294 295 293 296 295 291 298 300 303 303 303 303 303 302 302 302 301 301 298 297 299 303
302 302 302 302 302 300 303 305 306 305 299 291 290 288 291 305 303 303 303 301 292 298 291 293 295 294 292 298 301 302 303 302 301 302 301 301 300 300 301 298 295 295 297 302
301 301 300 298 297 303 303 299 295 295 295 293 288 295 291 297 297 298 298 299 296 291 295 300 295 295 302 303 303 305 304 304 304 298 297 298 299 300 299 295 295 295 296 302
298 294 294 299 304 298 296 294 294 294 288 291 292 295 292 299 293 294 300 295 296 291 296 296 295 292 297 304 305 305 306 305 304 303 301 301 301 300 299 296 294 295 296 299
294 294 298 300 297 294 289 291 293 293 290 293 290 291 296 299 302 297 299 295 297 290 301 295 292 297 303 305 304 305 305 305 303 302 300 301 301 301 299 296 294 295 295 297
300 296 292 293 292 286 285 285 288 288 291 294 295 293 292 298 301 295 296 291 293 301 294 292 296 302 304 304 304 304 306 305 303 302 302 301 301 301 298 295 295 294 294 294
294 290 284 286 288 289 290 290 290 294 295 296 295 294 292 294 288 291 288 296 297 289 289 291 295 302 303 305 305 304 304 305 302 302 302 300 300 299 299 296 294 293 292 294
290 290 283 287 290 291 292 293 292 294 296 294 293 293 294 292 289 290 289 287 288 291 292 297 300 305 306 305 305 305 305 304 303 303 302 300 300 299 298 298 295 294 292 292
291 289 287 290 289 289 290 290 290 294 294 295 295 292 290 287 289 286 286 286 285 286 291 299 305 305 307 306 305 306 306 307 304 303 303 302 300 299 298 298 296 293 292 291
289 289 293 291 290 289 289 291 292 295 292 289 291 287 287 290 288 287 286 285 285 293 296 301 304 304 307 306 305 306 307 307 306 304 304 302 302 301 297 295 296 294 293 292
Wind_Speed
20 20 20 19 21 26 13 6 4 6 3 4 4 7 5 7 9 7 9 12 14 10 13 16 15 18 12 13 16 15 13 6 16 21 24 14 19 22 2 4 15 11 8 15
19 18 17 20 21 18 9 7 5 4 3 3 6 11 12 13 5 9 9 11 14 11 15 13 10 16 16 13 14 8 5 6 13 13 9 9 10 20 18 5 14 16 14 13
17 16 18 20 21 18 9 7 4 2 4 4 8 13 13 9 6 5 7 11 14 12 13 13 12 18 6 9 15 19 5 13 16 13 19 9 10 20 20 12 10 15 13 18
18 18 17 20 23 22 7 4 5 6 6 9 11 11 16 14 11 6 7 10 10 14 13 17 19 18 21 17 19 11 2 10 15 18 21 24 18 22 24 26 23 17 15 15
19 18 18 17 22 29 3 6 6 8 12 12 10 8 13 13 14 13 13 14 12 9 14 16 24 23 18 14 14 8 6 9 15 20 21 21 20 25 23 20 24 23 18 15
17 17 17 17 16 19 5 5 2 4 8 9 11 8 8 14 12 10 12 15 18 19 17 19 19 20 22 20 15 17 9 8 10 17 17 19 14 1 9 19 23 23 15 17
16 16 16 15 14 13 5 5 6 3 7 9 11 17 15 16 12 15 20 17 18 19 17 20 22 24 23 18 10 11 4 8 6 11 15 12 7 8 11 14 23 22 18 11
16 15 15 15 15 12 9 8 2 3 8 11 17 12 16 18 14 15 19 16 12 11 15 14 13 10 6 10 15 11 8 2 4 5 7 15 18 8 5 9 24 16 15 16
15 15 14 14 14 13 9 8 3 3 5 7 15 17 12 11 10 15 13 16 14 10 7 6 7 10 13 2 5 9 10 5 3 5 5 5 5 7 8 6 15 13 17 18
15 15 14 14 13 13 9 9 8 3 7 14 14 10 14 12 7 9 15 10 10 6 4 3 4 8 10 5 6 4 4 4 6 8 7 8 8 9 4 4 5 12 15 19
15 15 15 15 14 13 9 10 10 7 9 18 25 22 20 13 6 6 8 10 5 8 4 3 3 4 4 6 10 11 5 4 4 4 4 5 6 4 5 6 9 13 21 24
15 16 15 15 14 14 11 10 8 6 5 14 24 26 26 26 24 11 5 7 6 4 4 4 6 3 4 8 6 9 5 5 5 5 5 7 12 15 16 13 13 11 14 18
15 16 16 16 15 14 11 10 11 10 10 14 12 14 14 19 20 15 8 5 7 6 5 3 4 6 7 6 8 14 15 15 9 11 8 7 17 14 8 8 7 15 17 18
16 17 16 16 16 15 14 9 9 9 4 7 6 12 13 11 9 15 17 17 2 3 0 2 3 4 10 6 13 17 14 13 9 16 15 12 10 13 9 15 19 10 11 13
18 18 17 17 16 15 13 12 12 11 9 6 12 24 20 12 17 15 16 13 13 6 3 4 4 4 7 8 12 14 11 9 2 4 17 13 12 14 11 18 10 13 17 16
20 20 20 19 17 15 9 5 3 8 8 2 5 12 18 12 7 18 12 9 6 4 3 3 4 4 4 5 8 15 12 6 1 8 14 18 15 11 11 10 17 21 20 21
22 22 21 21 18 9 7 6 2 7 5 2 6 7 3 8 10 3 3 7 3 4 2 4 4 7 5 5 9 19 10 8 13 16 14 12 11 9 9 11 18 22 19 17
25 24 22 19 16 8 7 7 9 8 2 3 5 7 10 9 7 4 7 5 4 5 3 3 4 3 5 8 14 6 3 7 14 9 11 11 13 13 11 12 17 19 16 17
26 25 26 7 4 4 1 7 13 3 3 3 4 4 9 1 4 3 3 4 4 4 5 5 5 4 7 11 14 9 8 7 14 14 16 14 14 15 14 18 19 19 20 17
30 11 7 6 1 7 6 5 4 4 3 4 6 10 14 13 9 4 3 3 4 4 8 6 7 9 11 2 16 7 9 11 14 14 15 15 12 16 16 20 17 17 19 11
5 6 4 7 9 5 6 4 6 6 4 5 6 10 12 8 11 9 6 3 4 4 3 5 4 1 6 12 9 5 10 11 7 10 12 12 11 12 12 15 17 16 15 13
9 9 10 6 3 5 6 3 5 6 4 5 7 5 10 3 4 4 5 4 3 5 3 4 3 3 7 6 5 7 8 10 13 13 13 14 13 14 12 12 12 13 15 15
6 6 4 2 3 3 5 7 4 5 3 3 6 8 2 4 3 3 5 3 5 7 3 3 4 7 7 2 6 7 12 13 13 13 12 14 13 15 13 14 16 16 16 15
4 2 3 4 1 3 4 8 8 8 12 11 8 3 2 1 3 4 4 4 6 1 4 4 4 4 7 6 6 7 12 10 13 13 13 15 13 12 13 13 13 13 13 13
4 4 3 4 8 11 12 13 12 9 13 12 11 6 4 3 3 1 3 4 4 3 2 5 8 14 11 8 7 8 11 7 12 11 12 13 13 13 12 12 12 13 13 15
3 4 6 7 9 9 10 11 11 8 5 11 6 5 4 3 2 2 3 2 6 6 7 6 10 18 15 14 8 7 9 5 10 10 10 11 12 13 12 12 14 14 14 15
4 4 5 5 7 8 8 9 9 8 8 6 4 6 5 3 5 6 5 4 4 8 10 10 15 16 15 7 15 16 6 6 8 11 11 11 12 12 11 12 13 12 13 12
Wind_Direction
337 338 340 345 347 341 328 295 300 81 317 246 247 265 13 294 298 316 294 291 290 308 316 313 304 304 323 356 344 328 335 285 283 299 290 21 4 300 56 210 268 290 251 279
341 347 351 349 346 360 321 295 298 136 255 297 325 324 319 313 325 312 314 298 299 315 305 316 309 306 313 347 323 320 322 296 306 294 269 31 360 301 296 333 272 265 264 282
349 351 348 343 339 343 320 286 338 10 309 304 303 333 308 325 325 275 301 319 300 313 322 306 285 299 344 295 310 300 268 267 267 283 287 265 249 274 279 196 250 266 283 298
350 347 343 342 337 335 304 305 4 23 305 326 334 308 300 288 300 329 313 280 300 320 313 302 300 305 317 312 316 304 234 273 282 280 279 277 264 264 271 268 261 273 280 299
351 350 348 344 342 332 251 349 352 346 299 308 280 323 303 330 350 336 308 298 315 314 298 292 295 295 298 298 298 305 298 283 302 293 289 284 319 300 299 291 293 276 280 283
348 350 348 351 354 337 324 30 65 342 295 287 299 313 318 308 319 304 295 336 317 300 293 293 303 285 280 279 285 285 283 274 293 285 294 312 306 90 349 327 319 325 345 353
346 348 350 348 353 353 306 319 307 290 283 327 311 321 301 291 300 279 293 293 286 287 321 300 286 272 260 255 218 235 249 262 282 279 300 279 287 148 357 289 283 306 334 337
343 345 345 346 343 344 302 309 310 286 284 309 294 336 326 308 300 302 297 295 300 331 300 294 299 313 44 239 203 178 200 202 281 277 268 286 290 331 24 342 300 303 321 342
338 340 340 340 335 337 301 289 257 283 290 257 342 310 323 329 319 308 299 345 338 299 280 287 280 312 310 289 164 181 184 184 236 321 287 282 71 45 0 340 284 11 8 341
332 334 334 330 334 326 309 292 288 254 276 273 266 295 298 300 288 278 296 347 307 317 259 270 285 302 322 341 332 224 211 209 222 239 257 275 152 207 194 228 312 317 317 305
326 326 326 324 324 320 316 301 303 266 271 283 279 284 282 287 258 250 297 310 34 293 253 266 259 287 307 300 305 285 197 272 220 222 249 281 188 308 273 299 320 304 308 302
322 320 320 318 318 312 312 288 289 315 261 276 300 284 276 268 269 266 216 257 320 288 301 350 316 300 269 280 283 301 273 235 266 196 253 300 343 287 222 249 304 303 295 285
317 315 316 315 308 305 296 292 300 288 292 288 253 268 262 224 231 233 228 208 212 229 306 329 308 284 316 290 293 299 297 304 286 292 245 274 284 303 327 331 278 280 274 268
313 312 312 305 302 298 298 279 283 290 292 282 299 308 301 301 212 210 201 232 114 260 101 242 240 260 283 295 291 288 283 293 284 276 285 293 301 332 336 327 317 267 284 279
310 308 306 305 304 309 296 272 257 242 244 300 310 310 284 266 216 208 204 212 239 255 221 214 243 264 277 284 276 270 271 287 264 286 314 299 307 342 353 330 306 308 292 284
309 308 310 310 306 313 286 293 133 222 236 299 293 318 292 279 202 194 214 203 213 198 224 257 242 247 270 259 278 287 305 22 144 272 291 295 342 337 341 317 324 302 291 279
306 305 302 301 298 273 245 349 354 353 69 255 274 265 266 215 165 163 128 188 190 199 182 223 250 267 256 245 256 281 12 349 299 287 285 335 350 335 321 330 311 302 293 281
304 300 300 301 299 264 270 260 179 145 154 241 272 273 270 186 196 235 192 174 159 180 217 226 232 222 207 253 253 230 236 258 275 342 352 357 339 344 340 332 325 325 330 323
300 299 297 283 224 203 70 62 152 178 228 258 247 280 293 263 290 337 166 148 198 179 214 228 231 217 228 247 343 4 305 303 18 346 5 350 349 343 343 353 344 340 336 335
300 292 211 166 20 262 199 178 197 196 198 221 249 246 262 281 288 288 242 169 220 211 219 209 210 240 304 114 237 40 359 16 8 9 1 350 1 357 356 356 353 347 336 347
328 334 352 334 333 276 225 235 219 157 228 210 250 254 261 264 261 273 272 198 222 258 139 235 226 122 282 257 68 2 4 35 360 32 15 4 18 355 11 358 359 347 346 22
322 300 289 286 272 246 282 245 237 226 2 13 335 331 309 244 261 232 259 258 262 252 215 236 337 2 116 98 73 29 13 36 31 29 28 17 12 24 24 9 357 0 15 16
241 201 236 251 256 290 241 336 16 314 282 286 301 326 285 315 282 302 276 278 260 315 271 285 44 28 86 121 55 29 51 25 39 25 39 36 14 35 26 14 13 19 25 19
269 285 283 262 268 16 269 300 306 9 323 327 318 346 260 298 299 330 287 316 291 8 277 42 248 70 43 44 30 15 50 33 36 29 35 40 23 48 39 35 20 24 26 25
292 303 246 298 347 327 346 334 334 340 347 325 319 307 185 220 260 241 298 309 263 203 344 34 318 5 35 26 348 66 62 31 39 30 41 45 28 40 36 41 47 31 29 34
253 243 267 306 323 330 332 336 330 332 314 300 352 310 272 260 263 223 214 267 22 355 324 337 360 3 354 19 332 325 68 42 53 33 38 63 52 41 42 36 48 43 32 37
260 243 262 324 331 332 332 317 327 327 306 351 349 311 2 314 299 26 24 322 277 312 343 350 8 346 344 358 13 343 74 76 49 48 33 44 82 62 51 43 43 56 48 41